CAPE
0 232 557 576 668 292 1 0 0 14 8 180 187 549 703 547 594 739 846 1089 966 970 1004 1139 1108 1114 1172 1217 1017 933 823 800 749 645 474 173 196 122 282 5 36 709 912
0 7 818 803 370 212 10 0 0 0 0 24 67 61 196 191 96 227 518 844 922 904 910 976 1073 1200 1080 1209 1050 1027 947 756 409 659 751 377 156 159 202 220 274 536 770
0 0 448 860 601 194 28 1 1 0 0 0 0 0 0 0 2 0 0 247 583 674 922 973 1009 966 1035 1031 1019 1063 956 795 307 358 490 305 110 143 107 124 560 575 212
0 12 17 430 289 99 106 170 26 0 0 0 0 0 0 0 0 0 0 0 27 83 308 750 916 949 1006 955 965 1057 779 870 319 391 119 58 66 235 66 36 65 413 57
1 8 263 520 339 153 92 202 0 0 0 0 0 0 0 0 0 0 0 0 0 0 0 15 429 853 897 916 947 980 541 388 683 601 326 365 357 345 252 101 0 102 155
2 23 256 889 361 186 255 82 46 0 0 0 0 0 0 0 0 0 0 0 0 0 0 0 0 62 471 776 985 963 760 314 314 319 112 124 302 475 418 215 172 88 144
28 7 11 1029 501 232 196 361 177 30 0 0 0 0 0 0 0 0 0 0 0 0 0 0 0 0 41 186 585 902 741 354 488 68 115 43 347 608 592 251 186 115 80
26 57 76 722 566 382 224 495 478 400 381 271 195 388 195 0 33 119 94 148 260 202 46 2 0 0 0 0 60 277 562 249 313 64 10 154 300 261 682 375 177 230 90
44 58 106 246 301 461 462 456 560 524 527 541 427 243 382 327 295 312 321 164 217 378 183 20 0 0 0 0 0 0 0 0 5 2 0 375 271 329 750 877 254 169 278
51 76 252 362 264 386 504 426 247 85 0 16 0 0 2 0 0 0 0 0 2 0 0 0 0 0 0 0 0 0 0 0 0 0 1 63 0 107 434 592 981 288 229
63 67 260 230 316 546 89 0 0 0 0 0 0 0 0 0 0 0 0 0 0 0 0 0 0 0 0 0 0 0 0 0 0 0 0 0 0 0 0 202 619 875 385
62 77 303 418 435 115 0 0 0 0 0 0 0 0 0 0 0 0 0 0 0 0 0 0 0 0 0 0 0 0 0 0 0 0 0 0 0 0 0 0 283 831 749
73 130 145 126 245 7 0 0 0 0 0 0 0 0 0 0 0 0 0 0 0 0 0 0 0 0 0 0 0 0 0 0 0 0 4 0 0 0 0 0 0 379 864
173 79 60 61 49 0 0 0 0 0 0 0 0 0 0 0 0 0 0 0 0 0 0 0 0 0 0 0 0 0 0 0 0 0 0 0 0 0 0 0 0 0 264
31 1 0 0 0 0 0 0 0 0 0 0 0 0 0 0 0 0 0 0 0 0 0 0 0 0 0 0 0 0 0 0 0 0 0 0 0 0 0 0 0 0 0
0 0 0 0 0 0 0 0 0 0 0 0 0 0 0 0 0 0 0 0 0 0 0 0 0 0 0 0 0 0 0 0 0 0 0 0 0 0 0 0 0 0 0
0 0 0 0 0 0 0 0 0 0 0 0 0 0 0 0 0 0 0 0 0 0 0 0 0 0 0 0 0 0 0 0 0 0 0 0 0 0 0 0 0 0 0
0 0 0 0 0 0 0 0 0 0 0 0 0 0 0 0 0 0 0 0 0 0 0 0 0 0 0 0 0 0 0 0 0 0 0 0 0 0 0 0 0 0 0
0 0 0 0 0 0 0 0 0 0 0 0 0 0 0 0 0 0 0 0 0 0 0 0 0 0 0 0 0 0 0 0 0 0 0 0 0 0 0 0 0 0 0
0 0 0 0 0 0 0 0 0 0 0 0 0 0 0 0 0 0 0 0 0 0 0 0 0 0 0 0 0 0 0 0 0 0 0 0 0 0 0 0 0 0 0
0 0 0 0 0 0 0 0 0 0 0 0 0 0 0 0 0 0 0 0 0 0 0 0 0 0 0 0 0 0 0 0 0 0 0 0 0 0 0 0 0 0 0
0 0 0 0 0 0 0 0 0 0 0 0 0 0 0 0 0 0 0 0 0 0 0 0 0 0 0 0 0 0 0 0 0 0 0 0 0 0 0 0 0 0 0
0 0 0 0 0 0 0 0 0 0 0 0 0 0 0 0 0 0 0 0 0 0 0 0 0 0 0 0 0 0 0 0 0 0 0 0 0 0 0 0 0 0 0
0 0 0 0 0 0 0 0 0 0 0 0 0 0 0 0 0 0 0 0 0 0 0 0 0 0 0 0 0 0 0 0 0 0 0 0 0 0 0 0 0 0 0
0 0 0 0 0 0 0 0 0 0 0 0 0 0 0 0 0 0 0 0 0 0 0 0 0 0 0 0 0 0 0 0 0 0 0 0 0 0 0 0 0 0 0
0 0 0 0 0 0 0 0 0 0 0 0 0 0 0 0 0 0 0 0 0 0 0 0 0 0 0 0 0 0 0 0 0 0 0 0 0 0 0 0 0 0 0
CIN
-0 -9 -3 -2 -0 -1 -27 -0 -0 -32 -22 -4 -3 -0 -0 -0 -0 -0 -0 -0 -0 -0 -0 -0 -0 -0 -0 -0 -0 -0 -0 -0 -4 -6 -16 -88 -75 -104 -33 -18 -94 -0 -0
-0 -1 -1 -0 -6 -3 -56 -0 -0 -0 -0 -26 -35 -41 -4 -4 -29 -7 -0 -0 -0 -0 -0 -0 -0 -0 -0 -0 -0 -0 -0 -4 -22 -10 -11 -57 -105 -89 -70 -58 -37 -2 -0
-0 -0 -1 -0 -0 -1 -72 -6 -7 -0 -0 -0 -0 -0 -0 -0 -0 -0 -0 -11 -0 -0 -0 -0 -0 -0 -0 -0 -0 -0 -0 -3 -36 -35 -31 -61 -134 -119 -124 -114 -4 -3 -47
-0 -1 -24 -5 -2 -10 -11 -3 -19 -0 -0 -0 -0 -0 -0 -0 -0 -0 -0 -0 -108 -69 -18 -0 -0 -0 -0 -0 -0 -0 -3 -6 -30 -24 -108 -154 -146 -75 -182 -190 -159 -22 -148
-0 -1 -18 -3 -4 -2 -25 -8 -0 -0 -0 -0 -0 -0 -0 -0 -0 -0 -0 -0 -0 -0 -0 -13 -9 -0 -0 -0 -0 -0 -13 -26 -21 -28 -37 -34 -34 -39 -71 -158 -0 -144 -104
-1 -56 -21 -0 -4 -1 -0 -41 -69 -0 -0 -0 -0 -0 -0 -0 -0 -0 -0 -0 -0 -0 -0 -0 -0 -84 -4 -0 -0 -0 -9 -33 -40 -31 -94 -101 -57 -20 -23 -93 -113 -164 -120
-0 -1 -10 -0 -1 -0 -2 -0 -18 -22 -0 -0 -0 -0 -0 -0 -0 -0 -0 -0 -0 -0 -0 -0 -0 -0 -87 -54 -3 -0 -11 -25 -18 -103 -86 -153 -47 -9 -4 -79 -101 -151 -173
-1 -23 -22 -3 -0 -0 -9 -0 -0 -1 -1 -15 -28 -3 -20 -0 -58 -22 -20 -10 -1 -0 -21 -0 -0 -0 -0 -0 -32 -43 -26 -39 -10 -116 -85 -94 -54 -60 -0 -39 -95 -83 -158
-0 -1 -19 -9 -24 -0 -0 -0 -0 -0 -0 -0 -0 -10 -1 -0 -2 -0 -0 -13 -5 -0 -8 -25 -0 -0 -0 -0 -0 -0 -0 -0 -39 -59 -0 -48 -51 -34 -5 -0 -60 -98 -58
-2 -1 -10 -4 -4 -0 -0 -3 -11 -31 -0 -60 -0 -0 -32 -0 -0 -0 -0 -0 -0 -0 -0 -0 -0 -0 -0 -0 -0 -0 -0 -0 -0 -0 -0 -178 -0 -135 -16 -9 -1 -51 -76
-2 -1 -9 -6 -6 -0 -52 -0 -0 -0 -0 -0 -0 -0 -0 -0 -0 -0 -0 -0 -0 -0 -0 -0 -0 -0 -0 -0 -0 -0 -0 -0 -0 -0 -0 -0 -0 -0 -0 -92 -7 -0 -19
-2 -1 -3 -2 -1 -13 -0 -0 -0 -0 -0 -0 -0 -0 -0 -0 -0 -0 -0 -0 -0 -0 -0 -0 -0 -0 -0 -0 -0 -0 -0 -0 -0 -0 -0 -0 -0 -0 -0 -0 -59 -4 -1
-2 -6 -1 -0 -4 -0 -0 -0 -0 -0 -0 -0 -0 -0 -0 -0 -0 -0 -0 -0 -0 -0 -0 -0 -0 -0 -0 -0 -0 -0 -0 -0 -0 -0 -0 -0 -0 -0 -0 -0 -0 -62 -1
-4 -7 -9 -1 -3 -0 -0 -0 -0 -0 -0 -0 -0 -0 -0 -0 -0 -0 -0 -0 -0 -0 -0 -0 -0 -0 -0 -0 -0 -0 -0 -0 -0 -0 -0 -0 -0 -0 -0 -0 -0 -0 -101
-2 -16 -0 -0 -0 -0 -0 -0 -0 -0 -0 -0 -0 -0 -0 -0 -0 -0 -0 -0 -0 -0 -0 -0 -0 -0 -0 -0 -0 -0 -0 -0 -0 -0 -0 -0 -0 -0 -0 -0 -0 -0 -0
-0 -0 -0 -0 -0 -0 -0 -0 -0 -0 -0 -0 -0 -0 -0 -0 -0 -0 -0 -0 -0 -0 -0 -0 -0 -0 -0 -0 -0 -0 -0 -0 -0 -0 -0 -0 -0 -0 -0 -0 -0 -0 -0
-0 -0 -0 -0 -0 -0 -0 -0 -0 -0 -0 -0 -0 -0 -0 -0 -0 -0 -0 -0 -0 -0 -0 -0 -0 -0 -0 -0 -0 -0 -0 -0 -0 -0 -0 -0 -0 -0 -0 -0 -0 -0 -0
-0 -0 -0 -0 -0 -0 -0 -0 -0 -0 -0 -0 -0 -0 -0 -0 -0 -0 -0 -0 -0 -0 -0 -0 -0 -0 -0 -0 -0 -0 -0 -0 -0 -0 -0 -0 -0 -0 -0 -0 -0 -0 -0
-0 -0 -0 -0 -0 -0 -0 -0 -0 -0 -0 -0 -0 -0 -0 -0 -0 -0 -0 -0 -0 -0 -0 -0 -0 -0 -0 -0 -0 -0 -0 -0 -0 -0 -0 -0 -0 -0 -0 -0 -0 -0 -0
-0 -0 -0 -0 -0 -0 -0 -0 -0 -0 -0 -0 -0 -0 -0 -0 -0 -0 -0 -0 -0 -0 -0 -0 -0 -0 -0 -0 -0 -0 -0 -0 -0 -0 -0 -0 -0 -0 -0 -0 -0 -0 -0
-0 -0 -0 -0 -0 -0 -0 -0 -0 -0 -0 -0 -0 -0 -0 -0 -0 -0 -0 -0 -0 -0 -0 -0 -0 -0 -0 -0 -0 -0 -0 -0 -0 -0 -0 -0 -0 -0 -0 -0 -0 -0 -0
-0 -0 -0 -0 -0 -0 -0 -0 -0 -0 -0 -0 -0 -0 -0 -0 -0 -0 -0 -0 -0 -0 -0 -0 -0 -0 -0 -0 -0 -0 -0 -0 -0 -0 -0 -0 -0 -0 -0 -0 -0 -0 -0
-0 -0 -0 -0 -0 -0 -0 -0 -0 -0 -0 -0 -0 -0 -0 -0 -0 -0 -0 -0 -0 -0 -0 -0 -0 -0 -0 -0 -0 -0 -0 -0 -0 -0 -0 -0 -0 -0 -0 -0 -0 -0 -0
-0 -0 -0 -0 -0 -0 -0 -0 -0 -0 -0 -0 -0 -0 -0 -0 -0 -0 -0 -0 -0 -0 -0 -0 -0 -0 -0 -0 -0 -0 -0 -0 -0 -0 -0 -0 -0 -0 -0 -0 -0 -0 -0
-0 -0 -0 -0 -0 -0 -0 -0 -0 -0 -0 -0 -0 -0 -0 -0 -0 -0 -0 -0 -0 -0 -0 -0 -0 -0 -0 -0 -0 -0 -0 -0 -0 -0 -0 -0 -0 -0 -0 -0 -0 -0 -0
-0 -0 -0 -0 -0 -0 -0 -0 -0 -0 -0 -0 -0 -0 -0 -0 -0 -0 -0 -0 -0 -0 -0 -0 -0 -0 -0 -0 -0 -0 -0 -0 -0 -0 -0 -0 -0 -0 -0 -0 -0 -0 -0
Wind_Speed
15 15 15 15 16 17 19 19 19 20 20 19 20 20 21 21 22 22 22 22 22 22 22 22 22 22 23 23 23 24 25 25 25 25 26 28 26 25 24 22 21 25 24
15 16 15 15 16 16 18 18 19 19 19 19 19 20 20 21 21 21 21 22 21 22 22 22 22 22 22 22 22 23 24 24 24 24 23 27 26 25 24 24 23 22 20
15 15 15 15 16 17 17 18 19 19 19 19 19 19 20 20 20 20 21 20 21 21 22 21 22 21 21 22 21 22 22 22 22 14 15 22 25 24 23 24 22 22 20
14 15 15 15 16 17 17 17 18 18 18 18 18 19 19 20 20 20 21 20 20 20 21 21 21 21 21 21 21 22 22 21 21 15 22 21 23 24 23 22 22 21 21
14 15 15 15 16 16 17 17 17 17 18 18 18 19 19 20 20 20 20 21 20 20 21 21 21 21 21 22 21 21 22 21 20 9 22 21 21 23 23 22 21 21 21
14 15 15 15 16 16 17 17 17 17 18 18 18 19 19 20 20 20 20 21 21 21 21 21 21 21 21 21 21 21 21 21 19 17 21 21 21 22 22 22 22 21 21
14 15 14 14 15 16 16 17 18 18 18 18 19 19 19 20 20 20 20 21 21 21 21 21 21 21 21 21 21 21 22 21 21 21 21 21 20 21 21 22 22 21 20
14 14 14 13 14 15 16 16 17 17 18 17 18 19 19 19 19 20 20 20 21 21 21 22 22 22 22 21 22 22 22 22 23 21 21 20 20 21 21 20 21 20 20
13 13 12 13 14 14 15 16 16 17 18 18 18 19 20 19 20 20 20 21 21 22 22 23 23 23 22 22 22 23 23 23 23 22 22 18 20 21 22 21 19 19 19
11 11 12 12 12 14 15 15 16 17 18 17 18 18 18 19 20 20 21 22 22 22 23 24 24 24 24 22 22 23 24 23 22 23 22 19 22 23 23 23 21 16 17
10 10 12 12 12 12 14 14 16 17 17 17 17 18 17 19 19 19 21 22 23 23 23 24 25 26 26 22 21 24 24 23 24 23 23 21 23 24 25 25 24 19 15
8 10 11 9 11 11 13 14 15 16 17 18 18 18 18 18 19 19 20 22 23 25 23 25 25 26 26 26 26 26 26 27 26 24 21 23 24 25 26 25 25 24 14
7 10 9 11 10 11 12 13 15 16 16 18 18 18 19 19 20 21 22 23 24 25 25 26 26 26 28 27 28 28 28 28 27 27 23 23 25 26 26 26 25 23 21
9 10 10 11 11 12 13 14 15 16 16 17 18 19 19 19 20 21 22 23 24 25 26 27 27 28 28 28 29 29 30 30 29 29 26 24 26 28 28 27 26 24 22
8 9 10 10 11 11 13 14 14 15 15 16 17 19 19 19 20 21 22 23 24 25 27 28 29 29 30 30 30 31 31 31 31 30 30 28 27 29 30 29 28 27 25
8 9 9 10 11 11 12 13 14 14 15 16 17 18 19 19 20 21 22 24 25 26 28 29 30 31 31 32 32 32 32 32 32 32 31 32 29 29 29 31 30 29 28
8 9 9 10 10 11 12 12 12 13 14 15 15 17 18 19 20 21 23 25 27 28 29 30 31 32 33 33 34 33 33 33 33 33 32 32 32 30 27 28 31 31 30
8 8 9 10 9 10 10 11 11 12 13 14 15 16 17 19 21 22 24 26 28 29 30 32 33 34 35 35 36 35 35 35 35 35 34 32 32 32 32 31 30 29 33
7 7 8 8 8 9 9 10 11 12 13 13 14 15 17 19 21 23 25 27 29 30 31 33 34 35 37 37 37 36 37 36 35 35 35 34 33 31 30 32 28 29 31
6 7 7 8 8 8 9 10 11 12 12 13 14 16 17 19 22 25 26 28 30 32 33 35 36 36 38 38 39 40 38 37 37 36 35 34 33 32 31 29 30 31 29
6 6 7 7 7 8 9 10 11 13 12 14 15 16 19 21 23 25 28 30 32 34 35 36 37 39 39 39 41 41 40 41 34 33 36 33 33 32 32 31 30 30 31
6 6 6 7 7 7 9 10 12 13 14 16 16 18 20 22 24 27 29 32 33 35 36 37 38 40 39 38 41 43 43 41 35 31 33 36 40 37 36 34 33 33 33
6 7 6 6 6 7 9 11 14 16 19 20 20 20 21 23 26 28 30 32 34 35 37 38 38 39 41 38 37 37 43 42 45 41 40 40 40 38 39 38 38 38 38
6 6 7 7 8 8 10 12 15 17 21 22 23 23 24 25 27 29 30 33 35 36 38 38 38 38 39 41 38 37 38 42 49 53 42 42 43 44 44 43 42 41 39
6 8 8 9 9 10 12 13 18 21 24 25 25 26 27 27 27 29 32 34 36 37 38 39 39 38 38 40 40 41 41 42 43 49 56 48 44 42 42 42 42 41 39
7 9 10 11 13 13 15 18 20 24 26 27 28 28 29 30 31 32 33 36 38 39 39 39 39 39 39 39 40 40 41 44 45 47 52 52 51 47 44 43 42 41 41
Wind_Direction
48 42 45 40 37 33 24 19 17 15 14 11 9 10 13 13 10 11 10 13 14 16 18 20 16 19 21 23 23 24 19 17 20 25 28 27 15 10 7 3 5 22 22
52 48 48 42 38 28 21 20 15 15 15 13 10 9 6 7 7 3 3 7 8 10 12 14 14 13 13 9 9 8 12 13 10 36 48 31 16 10 9 9 12 18 10
46 42 46 38 40 29 25 21 15 15 14 11 8 7 5 4 5 3 2 1 4 4 7 8 7 7 5 3 359 358 358 7 359 307 75 32 17 5 6 9 5 15 8
42 40 35 43 34 31 27 29 20 18 13 9 7 6 4 3 3 2 0 1 1 359 0 2 5 3 1 359 356 353 353 1 359 303 358 352 15 3 359 3 8 4 8
37 31 32 42 33 32 31 26 21 16 13 10 9 7 5 3 3 3 3 2 1 359 358 357 356 357 357 354 357 354 349 347 335 282 7 351 353 0 356 356 0 7 8
37 35 41 41 34 34 31 28 22 17 14 11 9 7 6 5 4 5 5 2 1 359 356 353 351 348 348 348 345 344 338 322 290 19 356 358 5 359 357 358 359 2 5
32 32 43 40 34 36 34 32 23 20 19 18 14 9 8 7 6 4 1 0 358 356 354 351 348 344 342 339 337 338 329 311 309 332 332 350 2 354 357 359 1 1 1
29 37 39 43 37 34 30 25 23 20 16 17 12 8 8 9 6 4 3 1 357 356 353 350 348 344 341 337 334 333 328 316 296 328 327 344 354 347 339 2 4 6 6
31 32 56 48 38 29 24 21 22 15 9 9 7 5 9 8 4 4 2 358 355 353 350 344 342 338 336 332 329 326 321 313 297 311 294 348 340 331 319 331 359 5 11
25 30 31 30 43 32 31 22 19 12 5 3 3 3 8 6 359 353 351 349 350 348 341 336 330 328 325 333 331 321 317 315 318 312 315 334 325 317 312 310 332 6 6
14 17 24 26 33 30 24 20 14 10 6 2 3 2 6 359 358 356 351 350 347 344 340 334 330 326 319 327 334 324 318 324 319 318 316 329 324 314 306 307 307 332 354
4 4 14 32 18 23 15 15 10 8 2 357 354 356 360 2 359 356 354 350 346 337 341 335 333 327 324 320 319 317 314 310 311 316 322 323 318 311 308 309 309 310 340
1 355 12 13 21 11 10 10 5 3 1 358 357 0 359 359 357 353 349 344 340 340 335 332 331 330 326 322 317 313 309 307 309 309 318 319 317 313 311 310 312 312 319
346 345 353 359 359 1 4 2 3 2 2 1 360 358 358 358 357 355 352 348 344 339 336 334 332 329 327 324 319 315 311 309 309 307 312 318 314 311 309 310 312 312 313
347 352 354 357 0 3 360 359 1 3 3 4 3 2 3 3 0 358 354 350 346 342 338 334 331 328 325 323 321 318 315 312 309 308 308 311 312 309 306 306 305 306 306
346 350 358 360 358 359 358 0 2 3 2 3 3 3 3 3 360 356 353 349 346 343 338 335 331 328 325 322 319 317 315 314 312 310 309 307 309 309 307 304 303 302 301
344 348 352 353 357 360 2 2 3 4 3 2 1 1 0 358 355 353 349 346 342 340 337 335 331 328 325 323 320 318 317 314 313 311 310 309 308 309 309 307 302 299 298
345 346 350 352 355 358 1 4 4 3 1 360 358 357 355 353 349 347 344 342 340 338 336 334 331 327 324 322 319 318 316 314 312 311 310 309 308 306 306 305 303 301 298
341 347 351 354 354 357 2 360 359 359 356 355 354 353 352 349 347 344 342 340 339 337 335 333 330 328 324 322 320 318 316 315 313 312 309 308 308 306 306 305 304 302 300
342 350 353 353 355 360 359 357 353 351 349 349 348 346 346 344 342 340 338 337 336 334 332 330 327 326 323 320 317 314 315 314 311 310 309 310 309 308 306 305 303 303 301
335 342 346 351 352 353 349 344 342 336 341 341 341 340 337 336 335 334 333 332 332 330 328 328 326 323 322 322 316 314 313 312 313 312 309 310 310 309 306 303 302 302 300
324 334 342 341 344 348 344 341 339 338 335 333 332 331 331 331 331 331 330 329 329 327 327 326 324 322 321 322 317 315 311 312 313 317 314 310 306 305 304 302 300 299 298
314 326 333 339 342 336 336 334 331 330 328 326 325 326 327 327 327 327 327 327 326 326 324 323 323 321 318 319 318 315 312 308 309 308 308 307 305 303 302 300 298 297 295
313 330 330 331 329 327 327 324 321 321 321 324 325 325 324 324 324 325 325 326 325 324 322 322 322 320 318 315 316 313 309 308 305 303 305 303 302 300 299 298 296 295 294
322 325 326 325 324 323 321 319 318 317 318 319 320 319 320 322 323 324 324 324 322 322 321 320 319 318 316 314 313 312 309 308 306 303 301 302 301 299 299 298 297 296 294
332 326 324 318 315 317 315 315 314 314 314 315 316 317 319 320 320 321 322 321 321 320 319 318 317 315 314 313 312 310 308 306 305 303 301 300 299 300 299 297 295 294 293